Theta_e
309 312 316 314 316 318 319 321 322 322 319 318 318 319 322 322 323 324 324 325 326 328 327 322 322 322 323 324 325 327 328 326 325 326 327 329 330 330 330 328 328 330 330 329
310 313 314 315 314 315 317 319 320 318 317 318 319 320 322 322 322 323 325 326 327 328 327 324 322 322 324 325 327 328 328 325 326 327 328 329 330 330 330 328 329 330 330 329
312 314 312 313 314 315 316 316 318 318 318 318 319 320 320 321 323 323 323 325 326 327 328 327 323 323 325 325 327 328 328 326 326 326 327 327 328 329 330 330 330 329 328 327
311 312 312 312 314 316 317 316 316 317 318 319 321 322 322 321 322 322 323 326 327 327 325 326 324 324 325 326 327 328 328 326 326 327 328 330 332 332 330 330 329 328 325 327
311 311 312 313 314 316 316 316 317 318 320 321 321 322 321 322 322 323 323 324 327 324 325 326 325 324 324 326 327 328 329 328 328 327 329 330 332 330 329 329 329 328 327 327
311 311 311 313 314 316 317 318 320 320 320 321 320 322 322 322 322 322 324 326 325 326 326 324 324 324 325 327 328 328 329 330 328 329 328 331 331 330 329 329 329 328 328 326
310 310 311 311 314 316 319 320 319 319 321 321 320 322 322 321 321 322 324 327 326 328 326 325 326 326 326 327 328 328 329 329 329 330 330 330 330 328 329 329 328 328 328 326
313 312 311 312 313 316 320 319 320 323 323 321 322 322 321 323 323 322 324 326 326 328 327 326 326 327 327 328 328 328 329 329 329 330 331 329 328 327 327 327 328 327 327 327
316 315 312 313 313 315 318 320 319 318 323 324 325 325 325 325 325 327 326 324 327 329 327 326 326 326 327 328 329 329 329 329 330 331 330 328 328 324 327 326 326 326 326 327
314 317 314 312 313 313 314 316 318 318 318 319 320 325 327 328 327 327 327 327 328 328 327 326 326 326 326 328 329 329 328 328 330 329 330 329 328 326 327 326 326 327 326 327
313 314 316 313 314 314 314 318 317 318 318 319 318 319 327 329 329 328 328 328 328 329 327 326 326 326 326 327 328 328 327 327 327 328 330 329 329 327 327 326 326 325 326 326
314 317 316 316 315 315 315 316 318 317 320 318 322 321 325 328 327 326 326 327 327 328 327 326 326 326 326 326 328 327 327 327 326 329 329 329 330 328 327 326 326 325 325 325
314 316 317 317 316 315 316 316 318 320 321 319 318 320 324 328 327 326 327 326 327 328 328 327 326 327 326 326 327 325 327 327 326 328 328 331 330 329 329 326 326 326 326 326
311 312 317 317 317 317 316 316 316 318 319 320 320 318 321 322 326 327 327 328 328 329 328 327 327 327 326 325 325 324 325 327 326 327 328 331 330 329 328 326 326 326 327 327
311 314 313 314 314 316 316 315 315 317 317 318 320 320 319 324 323 326 328 328 329 329 328 328 328 328 326 325 324 324 324 325 326 326 329 330 330 328 327 328 327 327 327 328
310 314 313 315 314 315 317 317 316 315 316 316 317 318 319 320 323 326 329 328 329 330 329 328 328 327 326 325 323 323 325 325 325 326 329 328 329 327 328 327 327 327 328 329
312 312 314 317 315 317 317 318 317 316 316 316 317 319 318 320 324 328 330 329 330 330 329 328 328 328 325 324 323 323 326 324 325 325 329 328 328 327 327 327 327 328 328 329
312 314 314 318 319 319 322 321 321 317 321 321 320 320 325 327 327 325 327 330 330 330 329 329 328 328 325 324 323 323 326 325 324 325 328 328 328 327 327 327 328 328 328 329
311 315 318 317 323 325 324 319 320 322 323 318 320 320 320 321 326 327 327 328 330 332 330 330 328 327 326 324 323 323 324 325 325 324 327 327 328 327 327 328 328 326 327 327
312 314 316 317 325 324 321 317 315 322 327 317 317 319 319 320 324 327 321 324 327 330 330 329 327 327 326 325 324 324 324 324 325 324 325 326 327 327 328 329 326 324 327 326
317 317 316 316 320 324 316 316 317 330 322 316 316 317 318 320 323 320 320 324 326 329 329 328 327 327 326 326 325 325 324 325 325 324 323 325 326 328 328 329 326 323 325 325
318 320 319 318 324 327 315 314 319 316 315 315 316 316 317 318 318 319 321 323 326 328 329 327 327 327 326 325 325 325 325 325 325 324 323 324 326 327 327 328 327 324 326 325
317 314 317 317 319 314 314 314 312 312 314 313 314 315 317 318 320 320 321 323 325 327 329 327 327 327 326 325 325 326 325 324 324 324 323 323 324 326 327 327 327 325 325 324
312 311 315 315 314 313 313 312 311 312 312 313 312 314 317 318 319 321 323 325 324 327 328 327 328 328 326 324 325 326 325 323 323 324 325 323 322 325 326 326 326 325 323 323
312 312 313 314 312 312 312 311 311 311 311 311 311 313 316 318 319 321 322 328 326 326 327 327 328 327 326 324 325 325 325 323 323 325 324 323 322 323 326 327 326 326 325 324
311 313 315 315 310 311 310 310 310 310 310 310 311 313 315 318 319 321 324 328 328 326 326 327 327 327 326 325 325 325 324 323 324 325 324 323 321 321 325 327 324 325 325 322
Wind_Speed
19 12 28 30 24 19 20 22 28 21 13 15 18 18 13 17 18 21 19 19 20 19 19 7 4 11 17 22 28 30 30 29 26 18 13 9 9 10 11 10 9 8 8 9
13 29 26 22 23 22 23 24 21 14 10 12 16 20 15 18 23 21 19 19 20 17 15 3 5 8 18 23 24 29 30 30 24 17 12 7 7 8 7 7 6 5 5 6
28 39 18 20 22 24 26 26 24 20 15 15 16 23 20 20 12 16 17 19 19 16 13 4 6 10 12 20 25 28 27 27 22 16 13 9 7 5 4 3 2 3 5 5
22 23 25 26 29 22 26 24 20 19 11 15 3 16 18 20 22 21 21 16 16 12 7 5 9 11 15 17 23 25 24 23 20 17 11 8 6 4 2 1 1 1 2 2
19 21 21 26 24 26 17 13 16 17 17 17 17 11 10 13 21 24 20 18 10 5 3 7 10 14 18 22 23 21 21 20 18 15 10 8 5 3 2 1 2 2 2 3
19 11 26 28 19 21 13 8 10 6 7 12 15 11 13 15 19 16 13 9 2 2 5 8 12 17 20 23 22 20 20 17 16 14 11 7 4 3 2 2 2 3 3 4
17 19 6 15 17 17 20 14 6 7 7 9 14 12 18 15 19 18 18 6 1 4 9 11 15 15 23 23 22 20 19 16 14 12 10 6 3 3 1 1 2 2 4 6
14 12 21 20 18 14 25 20 8 7 6 9 5 9 7 17 18 22 16 9 4 8 9 10 14 17 23 23 21 20 18 15 14 11 9 7 4 3 2 1 1 2 6 8
12 14 14 22 14 21 19 19 15 5 1 5 4 6 10 17 14 11 10 5 7 10 11 13 15 20 23 22 22 21 18 14 13 11 9 7 5 3 3 3 3 5 9 9
7 11 13 20 22 24 18 19 10 9 9 9 6 5 8 6 9 8 8 8 9 11 13 14 16 18 20 20 19 18 16 14 13 10 9 7 6 5 4 5 6 7 9 8
10 7 14 18 21 22 11 18 7 10 6 5 3 5 9 14 8 7 2 9 12 12 13 15 15 18 19 18 18 17 15 13 11 10 9 8 7 6 6 6 7 7 8 7
7 6 6 24 13 18 20 21 19 9 10 10 2 5 1 8 7 7 2 8 13 12 14 15 15 18 18 19 18 16 14 12 11 10 8 7 8 7 7 6 6 6 8 8
8 5 10 8 7 15 25 21 17 6 5 16 10 4 3 4 4 1 4 10 13 14 15 15 16 15 18 19 18 16 14 12 10 10 8 8 8 7 7 7 7 6 8 8
8 4 11 11 9 2 25 24 20 15 9 9 17 12 19 14 6 6 5 9 13 15 17 17 16 15 18 19 19 16 13 11 10 10 9 8 7 7 7 8 8 7 9 9
6 3 6 15 11 8 15 20 24 22 17 11 7 22 19 14 10 4 7 10 13 16 17 18 17 15 17 19 17 16 13 12 12 10 10 8 8 8 9 9 8 9 9 8
6 2 8 9 14 11 8 6 15 25 23 21 16 18 13 14 9 3 9 14 15 16 17 18 18 17 16 20 19 16 14 14 14 12 11 10 10 10 12 11 10 9 9 9
1 4 4 5 5 6 10 14 9 12 20 20 21 26 15 16 14 8 10 17 18 18 20 20 20 18 20 21 20 18 16 15 14 13 13 11 11 12 13 12 11 10 8 8
4 2 3 3 4 14 4 9 3 12 9 11 11 10 11 11 18 17 12 18 19 17 19 19 18 19 22 23 21 19 18 16 15 14 15 13 12 12 13 12 10 8 8 8
11 2 3 2 5 5 4 10 6 1 5 11 9 11 13 14 15 15 9 14 17 22 20 19 25 25 24 24 23 21 19 17 16 16 17 16 16 14 13 12 9 7 9 8
1 8 4 3 4 6 7 13 6 4 5 13 11 11 13 13 10 2 15 13 8 13 17 20 27 25 24 24 24 22 20 19 17 18 18 18 18 16 15 13 11 8 8 9
2 3 8 4 1 3 14 14 12 8 4 13 13 13 12 9 10 21 19 15 9 13 15 26 27 26 26 26 25 24 22 21 20 17 18 17 16 16 17 15 12 11 10 11
1 1 3 3 3 5 16 3 4 5 8 11 12 13 14 14 17 17 16 14 9 15 19 26 25 25 27 27 27 25 23 23 20 18 19 18 16 15 16 16 13 12 13 12
1 3 1 4 3 6 8 4 7 8 9 11 12 15 14 15 16 15 14 13 9 16 15 23 26 26 26 28 29 27 26 23 21 18 19 19 17 15 16 17 15 13 12 13
1 2 1 2 5 10 5 7 10 12 12 13 14 14 14 15 16 15 13 11 8 14 17 24 24 25 26 29 30 30 27 25 23 20 19 19 20 17 15 15 16 16 15 13
3 3 5 2 7 8 2 12 15 16 15 17 16 15 15 16 16 15 13 12 8 13 19 26 25 25 29 32 30 27 28 27 25 22 20 19 20 22 18 16 16 17 17 17
5 4 3 2 7 7 12 13 18 15 17 19 17 19 17 16 17 18 13 11 9 13 21 21 24 22 27 32 31 30 29 30 28 24 22 22 22 21 20 19 15 19 18 22
Wind_Direction
188 200 221 212 217 239 248 251 249 252 232 243 256 275 283 295 291 284 286 285 278 274 284 302 259 197 180 180 179 172 164 169 168 167 171 198 225 244 242 256 266 248 235 229
183 222 219 221 217 224 231 245 246 251 252 262 279 278 287 285 279 280 280 284 277 282 281 260 172 187 181 175 172 162 163 167 170 172 175 180 208 230 238 261 268 238 235 233
198 226 205 210 213 215 225 233 238 246 267 271 283 281 278 277 273 277 278 272 276 270 282 221 165 174 185 171 165 158 159 167 169 169 175 190 216 240 251 248 248 242 242 243
226 220 197 206 219 207 232 225 247 250 254 262 317 288 279 283 284 281 283 275 268 268 244 167 153 168 171 164 156 154 159 162 167 171 172 182 206 229 222 225 246 211 188 185
215 195 197 203 203 206 239 226 225 236 245 272 258 266 280 285 281 275 274 268 279 316 204 161 157 158 158 157 154 155 154 159 166 172 170 181 199 208 192 175 171 161 150 163
221 210 196 213 199 200 194 201 206 223 246 252 258 248 278 268 257 274 265 253 7 21 114 134 146 148 150 153 153 152 154 160 162 166 175 184 195 174 168 192 201 193 186 177
214 224 199 192 185 192 196 185 207 224 217 249 243 234 246 261 250 259 262 281 38 130 136 150 152 150 151 155 154 155 160 158 164 172 181 184 174 159 170 197 216 199 170 177
209 196 207 191 197 179 190 187 177 205 217 250 148 217 253 245 260 244 249 278 169 151 147 152 153 151 153 157 157 161 162 158 171 176 178 174 155 146 134 159 118 144 159 157
209 225 183 186 187 180 183 202 203 254 283 277 171 261 278 247 246 235 238 218 176 160 154 150 156 157 158 160 165 164 160 165 169 171 171 163 158 149 143 92 125 143 144 142
280 224 198 185 183 201 201 187 185 206 221 236 238 280 257 313 243 205 193 193 170 156 150 158 164 162 161 164 164 160 164 169 169 173 172 167 168 159 138 117 140 145 143 143
274 277 174 167 201 187 178 187 187 190 215 207 279 246 213 252 263 270 346 153 157 156 155 164 166 163 160 161 163 161 164 162 166 173 173 171 170 167 145 136 145 147 144 144
304 298 250 207 195 196 199 187 183 185 193 220 272 256 240 246 293 309 249 141 140 160 159 165 167 159 161 165 165 163 161 168 167 167 172 174 167 168 156 150 151 155 148 148
340 238 224 157 200 204 200 199 190 172 161 198 198 233 206 280 235 55 119 139 147 163 157 166 167 165 167 168 168 163 166 170 166 166 173 159 162 165 158 156 162 149 150 152
319 267 254 211 201 67 201 197 196 201 203 194 215 223 264 275 333 49 119 149 164 170 162 167 169 169 172 172 171 166 169 172 167 168 171 157 158 153 152 154 157 152 146 147
357 269 293 268 274 300 174 200 204 207 216 221 206 227 240 265 304 11 151 159 176 168 168 170 170 175 173 171 174 168 171 172 165 160 160 147 140 134 136 142 146 144 135 136
341 8 340 257 256 256 255 198 214 209 221 237 250 257 240 283 307 222 176 171 191 176 169 170 176 177 174 173 176 169 169 166 165 160 157 145 135 134 138 137 137 134 131 134
285 339 331 209 313 253 244 237 212 210 224 221 225 241 260 267 277 274 193 184 198 179 172 176 180 180 177 177 175 172 171 166 166 163 159 151 142 141 143 142 138 137 136 138
269 297 248 249 221 214 116 38 309 214 56 5 285 287 329 318 300 298 241 204 195 183 173 178 179 180 179 176 177 171 171 170 169 169 164 157 149 147 147 147 145 146 143 146
228 254 255 234 201 105 47 17 343 49 74 18 344 332 322 319 304 268 248 207 216 184 178 178 178 177 174 176 177 171 174 175 174 174 172 168 161 155 157 153 150 147 147 148
132 210 251 205 220 190 9 333 301 179 140 4 353 340 330 331 253 220 356 340 248 221 171 170 173 175 174 179 177 173 177 180 182 180 179 176 173 172 170 162 154 146 139 143
194 113 188 208 103 87 352 347 153 187 37 341 346 334 326 308 295 310 316 314 279 202 190 168 169 175 179 175 176 178 180 186 186 182 181 181 181 183 179 168 163 151 141 139
0 279 175 203 162 136 359 18 75 354 338 334 336 333 322 312 304 305 305 297 270 194 178 178 169 177 177 177 178 183 186 187 185 180 181 183 183 181 182 177 169 158 151 143
61 357 16 6 49 356 348 25 44 1 334 338 332 330 328 320 318 314 305 297 269 199 183 189 175 174 178 180 183 186 190 184 182 181 181 181 182 182 185 181 174 167 163 160
16 330 25 318 354 338 351 46 7 354 344 340 337 329 332 325 326 318 311 299 261 201 188 180 189 175 179 183 187 192 185 184 184 184 185 183 180 182 184 186 186 181 180 176
356 315 350 352 348 337 45 2 348 338 344 343 338 336 334 333 329 328 315 304 280 206 194 181 191 185 182 183 188 186 187 184 184 185 184 186 186 185 184 189 187 193 197 191
348 4 4 19 298 284 298 325 327 335 334 341 335 334 333 342 334 333 321 310 288 214 193 188 189 191 186 186 186 185 187 186 184 187 186 187 189 189 191 190 193 198 204 209